#timestamp,LO_Frequency,Hit,StdDev 
1597222815.7,286046997.4,N
1597222835.5,286046997.1,Y
1597222855.3,286047001.2,P
1597222875.2,286046998.1,N
1597222895.0,286046998.6,N
1597222895.9,286046998.6,N
1597222915.8,286046998.5,N
1597222935.9,286046998.5,N
1597222955.7,286046998.1,N
1597222975.6,286046999.0,N
1597222995.4,286046998.8,N
1597223015.2,286047000.8,N
1597223035.1,286047001.1,N
1597223036.0,286047001.1,N
1597223055.8,286046998.6,N
1597223075.6,286046998.2,N
1597223095.5,286047000.7,N
1597223115.3,286046998.3,N
1597223135.2,286046998.5,N
1597223155.9,286046998.5,N
1597223175.7,286046998.8,N
1597223195.6,286046997.0,N
1597223215.4,286046996.7,N
1597223235.2,286046996.7,N
1597223255.1,286046999.1,N
1597223256.0,286046999.1,N
1597223275.8,286046997.3,N
1597223295.7,286046997.2,N
1597223315.5,286046997.7,N
1597223335.3,286046997.0,N
1597223355.2,286046996.5,N
1597223375.0,286046997.3,N
1597223375.9,286046997.3,N
1597223395.7,286046995.3,Y
1597223415.6,286046998.4,P
1597223435.4,286047001.1,P
1597223455.3,286046999.8,N
1597223475.1,286047000.3,N
1597223476.0,286047000.3,N
1597223495.8,286047002.3,N
1597223515.7,286047002.4,N
1597223535.5,286047002.8,N
1597223555.3,286047000.3,N
1597223575.2,286047000.6,N
1597223595.0,286047000.9,N
1597223595.9,286047000.9,N
1597223615.8,286046999.8,N
1597223635.6,286047002.2,N
1597223655.4,286047002.0,N
1597223675.3,286047001.9,N
1597223695.1,286047001.5,N
1597223715.9,286047003.9,Y
1597223735.7,286047002.5,P
1597223755.5,286047002.6,P
1597223775.4,286047002.5,P
1597223795.2,286047002.0,N
1597223815.0,286047001.7,N
1597223815.9,286047001.7,N
1597223835.8,286047001.3,N
1597223855.6,286047001.3,N
1597223875.5,286047003.7,Y
1597223895.3,286047002.7,P
1597223915.1,286047000.4,N
1597223935.9,286047001.0,N
1597223955.1,286047000.4,N
1597223975.9,286047000.9,N
1597223995.7,286047001.0,N
1597224015.5,286047000.6,N
1597224035.4,286047000.4,N
1597224055.2,286047001.0,N
1597224075.1,286046998.5,N
1597224076.0,286046998.5,N
1597224095.8,286047001.0,N
1597224115.1,286047000.9,N
1597224135.9,286047000.3,N
1597224155.7,286046998.5,N
1597224175.5,286047000.3,N
1597224195.4,286047000.3,N
1597224215.2,286047000.0,N
1597224235.0,286047000.2,N
1597224235.9,286047000.2,N
1597224255.8,286047002.5,N
1597224275.6,286047002.5,N
1597224295.5,286047002.0,N
1597224315.3,286047002.7,N
1597224335.1,286047002.5,N
1597224355.9,286047002.7,N
1597224375.7,286047002.3,N
1597224395.5,286047000.1,N
1597224415.4,286047000.2,N
1597224435.2,286047000.1,N
1597224455.1,286047002.6,N
1597224456.0,286047002.6,N
1597224475.8,286047002.7,N
1597224495.6,286047000.3,N
1597224515.5,286047000.1,N
1597224535.3,286047000.9,N
1597224555.2,286047000.4,N
1597224575.9,286047000.0,N
1597224595.7,286046999.7,N
1597224615.6,286046999.8,N
1597224635.4,286047000.2,N
1597224655.3,286047002.5,N
1597224675.1,286047011.9,Y
1597224676.0,286047002.4,P
1597224695.8,286047000.2,N
1597224715.7,286047001.1,N
1597224735.5,286047000.3,N
1597224755.3,286047000.3,N
1597224775.2,286047000.5,N
1597224795.0,286047000.5,N
1597224795.9,286047000.5,N
1597224815.8,286047000.5,N
1597224835.6,286047000.7,N
1597224855.5,286047000.5,N
1597224875.3,286047000.4,N
1597224895.1,286047000.0,N
1597224915.9,286047000.4,N
1597224935.7,286046999.8,N
1597224955.6,286047000.0,N
1597224975.4,286047000.5,N
1597224995.2,286047000.6,N
1597225015.1,286047000.5,N
1597225016.0,286047000.5,N
1597225035.8,286047000.8,N
1597225055.6,286047000.3,N
1597225075.5,286046999.9,N
1597225095.3,286047002.3,Y
1597225115.2,286047000.8,P
1597225135.9,286047000.9,P
1597225155.7,286047000.7,P
1597225175.6,286047000.6,Y
1597225195.4,286047000.8,P
1597225215.2,286047000.4,P
1597225235.1,286047001.2,P
1597225236.0,286047001.2,Y
1597225255.8,286046998.9,P
1597225275.7,286046999.0,N
1597225295.5,286046999.3,N
1597225315.3,286046999.3,N
1597225335.2,286046999.3,N
1597225355.0,286046999.4,N
1597225355.9,286046999.4,N
1597225375.8,286046999.1,N
1597225395.6,286046999.1,N
1597225415.4,286046999.3,N
1597225435.3,286046998.9,N
1597225455.1,286046998.7,N
1597225475.8,286046999.3,N
1597225495.7,286046999.5,N
1597225515.5,286046996.5,Y
1597225535.4,286046998.4,P
1597225555.2,286047000.3,N
1597225575.0,286047001.2,N
1597225575.9,286047001.2,N
1597225595.8,286046998.3,N
1597225615.6,286046998.3,N
1597225635.4,286046998.9,N
1597225655.3,286046999.0,N
1597225675.1,286046999.1,N
1597225695.9,286046998.2,N
1597225715.7,286046998.3,N
1597225735.6,286046998.8,N
1597225755.4,286046998.7,N
1597225775.2,286046998.3,N
1597225795.1,286047000.8,N
1597225796.0,286047000.8,N
1597225815.8,286047001.1,N
1597225835.6,286046998.8,N
1597225855.5,286047001.2,N
1597225875.3,286046998.8,N
1597225895.2,286047001.2,N
1597225915.9,286047001.1,N
1597225935.7,286047000.8,N
1597225955.6,286046998.4,N
1597225975.4,286047001.2,N
1597225995.2,286046998.2,N
1597226015.1,286046998.9,N
1597226016.0,286046998.9,N
1597226035.8,286046998.8,N
1597226055.7,286046998.7,N
1597226075.5,286046998.8,N
1597226095.3,286046998.1,N
1597226115.2,286046998.6,N
1597226135.0,286046998.1,N
1597226135.9,286046998.1,N
1597226185.8,286047001.2,E
1597226195.7,286046998.1,N
1597226215.5,286046999.2,P
1597226235.4,286046999.4,N
1597226255.2,286046999.4,N
1597226275.0,286046999.1,N
1597226275.9,286046999.1,N
1597226295.8,286046999.3,N
1597226315.6,286046999.0,N
1597226335.5,286046999.2,N
1597226355.3,286046997.1,Y
1597226375.1,286046998.9,P
1597226395.9,286046999.2,P
